Location: Strawberry
(45.6646°N, 111.9596°W)
Time: 12:19:09
(UTC+00:00)

Transit 4A - Pass Details

Date: 06 October 2022
Orbit: 871 x 973 km, 66.8° (Epoch: 26 November)

Event Time Altitude Azimuth Distance (km) Brightness Sun altitude
Rises 11:04:43 0° 330° (NNW) 3,514 10.8 -26.2°
Reaches altitude 10° 11:08:20 10° 351° (N) 2,555 10.3 -25.6°
Maximum altitude 11:11:53 16° 29° (NNE) 2,133 10.3 -25.1°
Drops below altitude 10° 11:15:25 10° 66° (ENE) 2,529 11.2 -24.5°
Sets 11:18:56 0° 88° (E) 3,459 12.1 -23.9°
